Location: Falkner
(32.6954°N, 86.0502°W)
Time: 12:32:09
(UTC+00:00)

Cosmos 2219 - Pass Details

Date: 29 October 2020
Orbit: 832 x 862 km, 71.1° (Epoch: 04 December)

Event Time Altitude Azimuth Distance (km) Brightness Sun altitude
Rises 23:12:04 0° 349° (N) 3,442 6.4 -4.2°
Reaches altitude 10° 23:14:45 10° 358° (N) 2,503 5.6 -4.7°
Maximum altitude 23:20:01 36° 64° (ENE) 1,336 3.8 -5.8°
Drops below altitude 10° 23:25:14 10° 130° (SE) 2,487 5.3 -6.9°
Sets 23:27:53 0° 139° (SE) 3,418 6.1 -7.4°
